St. Augustine, FL

5:12 AM EDT on May 23, 2017 (GMT -0400)
Saint Augustine

Weather History for KSGJ - January, 2013

Change the Weather History Date:

Sunday, January 6, 2013

  Actual Average Record
Temperature  
Mean Temperature 60 °F -  
Max Temperature 66 °F 62 °F 80 °F (1974)
Min Temperature 55 °F 44 °F 26 °F (1999)
Degree Days  
Heating Degree Days 4    
Growing Degree Days 10 (Base 50)    
Moisture  
Dew Point 56 °F    
Average Humidity 90    
Maximum Humidity 100    
Minimum Humidity 77    
Precipitation  
Precipitation 0.03 in - - ()
Sea Level Pressure  
Sea Level Pressure 30.18 in    
Wind  
Wind Speed 7 mph (North)    
Max Wind Speed 13 mph    
Max Gust Speed -    
Visibility 10 miles    
Events Rain    
Averages and records for this station are not official NWS values.
T = Trace of Precipitation, MM = Missing Value Source: NWS Daily Summary

Daily Weather History Graph

Daily Weather History Graph

Search for Another Location

Airport or City:

Trip Planner

Search our weather history database for the weather conditions in past years. The results will help you decide how hot, cold, wet, or windy it might be!

Date:

Astronomy

Jan. 06, 2013 Rise Set
Actual Time 7:22 AM EST 5:40 PM EST
Civil Twilight 6:55 AM EST 6:06 PM EST
Nautical Twilight 6:26 AM EST 6:36 PM EST
Astronomical Twilight 5:57 AM EST 7:05 PM EST
Moon 1:44 AM EST (1/6) 12:59 PM EST (1/6)
Length of Visible Light 11h 10m
Length of Day
10h 18m
Waning Crescent, 33% of the Moon is Illuminated
Jan 6
Waning Crescent
Jan 11
New
Jan 18
First Quarter
Jan 26
Full
Feb 3
Last Quarter

Hourly Weather History & Observations

Time (EST) Temp. Dew Point Humidity Pressure Visibility Wind Dir Wind Speed Gust Speed Precip Events Conditions
12:58 AM 55.0 °F 54.0 °F 96% 30.25 in 10.0 mi NNW 6.9 mph - N/A   Mostly Cloudy
1:58 AM 55.9 °F 54.0 °F 93% 30.23 in 10.0 mi North 5.8 mph - N/A   Overcast
2:58 AM 57.0 °F 54.0 °F 89% 30.21 in 10.0 mi North 4.6 mph - 0.00 in   Overcast
3:44 AM 57.2 °F 55.4 °F 94% 30.21 in 10.0 mi NW 5.8 mph - N/A   Overcast
3:58 AM 57.0 °F 55.0 °F 93% 30.20 in 10.0 mi North 6.9 mph - N/A   Overcast
4:16 AM 57.2 °F 53.6 °F 88% 30.20 in 10.0 mi NNW 6.9 mph - N/A   Overcast
4:58 AM 57.0 °F 55.0 °F 93% 30.19 in 10.0 mi North 4.6 mph - N/A   Overcast
5:05 AM 57.2 °F 55.4 °F 94% 30.18 in 10.0 mi NNW 3.5 mph - N/A   Overcast
5:58 AM 57.0 °F 55.0 °F 93% 30.18 in 10.0 mi North 3.5 mph - N/A   Overcast
6:26 AM 57.2 °F 55.4 °F 94% 30.18 in 10.0 mi North 4.6 mph - N/A   Overcast
6:58 AM 57.9 °F 55.9 °F 93% 30.18 in 10.0 mi North 4.6 mph - N/A   Clear
7:58 AM 59.0 °F 57.0 °F 93% 30.19 in 10.0 mi North 6.9 mph - N/A   Scattered Clouds
8:37 AM 60.8 °F 57.2 °F 88% 30.20 in 10.0 mi NNW 11.5 mph - N/A   Mostly Cloudy
8:58 AM 60.1 °F 57.0 °F 90% 30.22 in 10.0 mi NNW 11.5 mph - N/A   Overcast
9:07 AM 60.8 °F 57.2 °F 88% 30.22 in 5.0 mi NW 8.1 mph - N/A   Overcast
9:38 AM 60.8 °F 57.2 °F 88% 30.22 in 5.0 mi North 8.1 mph - 0.00 in Rain Light Rain
9:57 AM 61.0 °F 57.9 °F 90% 30.22 in 6.0 mi North 4.6 mph - 0.00 in   Overcast
10:58 AM 64.0 °F 59.0 °F 84% 30.20 in 7.0 mi NNE 10.4 mph - N/A   Scattered Clouds
11:30 AM 62.6 °F 57.2 °F 82% 30.19 in 10.0 mi North 11.5 mph - N/A   Mostly Cloudy
11:49 AM 64.4 °F 57.2 °F 77% 30.18 in 10.0 mi North 9.2 mph - N/A   Mostly Cloudy
11:58 AM 64.9 °F 57.9 °F 78% 30.18 in 10.0 mi North 10.4 mph - N/A   Mostly Cloudy
12:02 PM 64.4 °F 57.2 °F 77% 30.18 in 10.0 mi North 8.1 mph - N/A   Overcast
12:58 PM 66.0 °F 59.0 °F 78% 30.15 in 10.0 mi NNE 5.8 mph - N/A   Overcast
1:58 PM 64.0 °F 57.9 °F 80% 30.13 in 10.0 mi NE 9.2 mph - N/A   Overcast
2:48 PM 62.6 °F 57.2 °F 82% 30.12 in 10.0 mi North 11.5 mph - N/A   Overcast
2:58 PM 62.1 °F 55.9 °F 80% 30.12 in 10.0 mi North 12.7 mph - N/A   Overcast
3:58 PM 61.0 °F 55.9 °F 83% 30.13 in 10.0 mi North 9.2 mph - N/A   Unknown
4:18 PM 60.8 °F 55.4 °F 82% 30.13 in 10.0 mi NNE 10.4 mph - N/A   Overcast
4:52 PM 60.8 °F 55.4 °F 82% 30.13 in 10.0 mi North 12.7 mph - N/A   Overcast
4:58 PM 60.1 °F 55.0 °F 83% 30.13 in 10.0 mi North 11.5 mph - N/A   Overcast
5:42 PM 57.2 °F 55.4 °F 94% 30.15 in 10.0 mi North 6.9 mph - N/A   Overcast
5:58 PM 57.9 °F 55.9 °F 93% 30.15 in 10.0 mi North 9.2 mph - 0.00 in Rain Light Rain
6:04 PM 57.2 °F 55.4 °F 94% 30.15 in 10.0 mi North 8.1 mph - 0.00 in Rain Light Rain
6:27 PM 57.2 °F 55.4 °F 94% 30.16 in 10.0 mi North 8.1 mph - 0.00 in Rain Light Rain
6:58 PM 57.0 °F 55.9 °F 96% 30.16 in 10.0 mi North 5.8 mph - 0.01 in Rain Light Rain
8:16 PM 57.2 °F 55.4 °F 94% 30.18 in 10.0 mi North 10.4 mph - 0.00 in   Overcast
8:26 PM 57.2 °F 55.4 °F 94% 30.18 in 8.0 mi NNW 6.9 mph - 0.00 in   Overcast
8:58 PM 55.9 °F 55.0 °F 97% 30.17 in 10.0 mi North 8.1 mph - 0.00 in   Overcast
9:56 PM 55.4 °F 55.4 °F 100% 30.19 in 9.0 mi NNW 8.1 mph - 0.02 in Rain Light Rain
9:58 PM 55.9 °F 55.0 °F 97% 30.19 in 10.0 mi NNW 8.1 mph - 0.02 in Rain Light Rain
10:25 PM 55.4 °F 55.4 °F 100% 30.19 in 10.0 mi NNW 5.8 mph - 0.00 in   Overcast
10:31 PM 55.4 °F 55.4 °F 100% 30.19 in 10.0 mi NW 4.6 mph - 0.00 in   Overcast
10:58 PM 55.9 °F 55.0 °F 97% 30.20 in 10.0 mi North 4.6 mph - 0.00 in   Overcast
11:58 PM 55.9 °F 54.0 °F 93% 30.20 in 10.0 mi NW 3.5 mph - N/A   Overcast